EW6135 Weather Reports


Display with metric or nautical units.
time (UTC)temp
F
wind
direction
speed
MPH
gust
MPH
rain 1hr
in
rain 24hr
in
rain mn
in
humidity
%
barometer
mb
20260831024026 73 221 0.0 0.0 0.00 1.92 1.91 100 1019.6
20260831023526 73 221 0.0 0.0 0.00 1.92 1.91 100 1019.7
20260831023025 73 221 0.0 0.0 0.00 1.92 1.91 100 1019.7
20260831022528 73 221 0.0 0.0 0.00 1.92 1.91 100 1019.7
20260831022128 73 221 0.0 0.0 0.00 1.92 1.91 100 1019.7
20260831021541 73 221 0.0 0.0 0.00 1.92 1.91 100 1019.6
20260831021025 73 221 0.0 0.0 0.00 1.92 1.91 100 1019.6
20260831020525 73 221 0.0 0.0 0.00 1.92 1.91 100 1019.6
20260831020025 73 221 0.0 0.0 0.00 1.92 1.91 100 1019.6
20260831015526 73 221 0.0 0.0 0.00 1.92 1.91 100 1019.7
20260831015027 73 222 0.0 0.0 0.00 1.92 1.91 100 1019.8
20260831014524 74 221 0.0 0.0 0.00 1.92 1.91 100 1019.9
20260831014024 74 221 0.0 0.0 0.00 1.92 1.91 100 1019.9
20260831013524 74 221 0.0 0.0 0.00 1.92 1.91 100 1019.8
20260831013024 74 221 0.0 0.0 0.00 1.92 1.91 100 1019.8
20260831012524 74 221 0.0 0.0 0.00 1.92 1.91 100 1019.9
20260831012124 74 221 0.0 0.0 0.00 1.92 1.91 100 1019.8
20260831011536 74 221 0.0 0.0 0.00 1.92 1.91 100 1019.8
20260831011022 74 221 0.0 0.0 0.00 1.92 1.91 100 1019.8
20260831010521 74 221 0.0 1.0 0.00 1.92 1.91 100 1019.6
20260831010021 74 221 0.0 1.0 0.00 1.92 1.91 100 1019.5
20260831005521 74 221 0.0 0.0 0.00 1.92 1.91 100 1019.4
20260831005027 74 221 0.0 1.0 0.00 1.92 1.91 100 1019.3
20260831004521 74 221 0.0 1.0 0.00 1.92 1.91 100 1019.3
20260831004022 74 221 0.0 0.0 0.00 1.92 1.91 100 1019.2
20260831003521 74 221 0.0 0.0 0.01 1.92 1.91 100 1019.2
20260831003020 74 221 0.0 2.0 0.01 1.92 1.91 100 1019.1
20260831002521 74 221 0.0 2.0 0.02 1.92 1.91 100 1019.2
20260831002122 74 221 0.0 0.0 0.02 1.92 1.91 100 1019.2
20260831001533 74 221 0.0 0.0 0.02 1.92 1.91 100 1019.1
20260831001020 74 221 0.0 1.0 0.02 1.92 1.91 100 1019.1
20260831000521 74 221 0.0 1.0 0.02 1.92 1.91 100 1019.2
20260831000020 74 221 0.0 0.0 0.02 1.93 1.91 100 1019.2
20260830235520 74 221 0.0 1.0 0.02 1.93 1.91 100 1019.1
20260830235020 74 221 0.0 1.0 0.02 1.93 1.91 100 1019.1
20260830234525 74 221 0.0 0.0 0.00 0.00 1.91 100 1019.1
20260830234022 74 221 0.0 3.0 0.02 1.93 1.91 100 1019.1
20260830233521 74 346 0.0 3.0 0.02 1.93 1.91 100 1019.2
20260830233019 74 340 0.0 3.0 0.01 1.92 1.90 100 1019.2
20260830232519 74 56 0.0 3.0 0.01 1.91 1.89 100 1019.0
20260830232121 74 2 0.0 0.0 0.01 1.91 1.89 100 1019.0
20260830231520 74 2 0.0 0.0 0.01 1.91 1.89 100 1019.0
20260830231020 74 2 0.0 0.0 0.02 1.91 1.89 99 1019.0
20260830230521 74 2 0.0 0.0 0.02 1.91 1.89 99 1019.0
20260830230017 74 2 0.0 2.0 0.02 1.91 1.89 99 1019.2
20260830225516 74 2 0.0 2.0 0.03 1.91 1.89 99 1019.4
20260830225015 74 2 0.0 1.0 0.04 1.91 1.89 99 1019.5
20260830224515 74 2 0.0 2.0 0.05 1.91 1.89 99 1019.6
20260830224015 74 18 0.0 2.0 0.05 1.91 1.89 99 1019.8
20260830223515 74 57 0.0 2.0 0.06 1.91 1.89 99 1019.9
20260830223019 74 57 0.0 4.0 0.06 1.91 1.89 99 1020.0
20260830222514 74 354 0.0 4.0 0.05 1.90 1.88 99 1020.0
20260830222115 74 243 0.0 1.0 0.05 1.90 1.88 99 1020.1
20260830221514 74 243 0.0 1.0 0.05 1.90 1.88 99 1020.1
20260830221014 74 243 0.0 1.0 0.05 1.90 1.88 99 1020.1
20260830220514 74 243 0.0 2.0 0.04 1.89 1.87 99 1020.0
20260830220016 74 352 0.0 2.0 0.04 1.89 1.87 99 1020.0
20260830215514 74 210 0.0 0.0 0.04 1.89 1.87 99 1020.1
20260830215014 74 39 0.0 0.0 0.03 1.88 1.86 99 1020.2
20260830214514 74 39 0.0 1.0 0.02 1.87 1.85 99 1020.2
20260830214013 74 39 0.0 2.0 0.01 1.86 1.84 99 1020.3
20260830213515 74 39 0.0 2.0 0.01 1.86 1.84 99 1020.2
20260830213014 74 248 0.0 2.0 0.01 1.85 1.83 99 1020.2
20260830212513 75 248 1.0 2.0 0.02 1.85 1.83 99 1020.2
20260830212113 74 220 0.0 0.0 0.03 1.85 1.83 99 1019.9
20260830211514 74 221 0.0 0.0 0.04 1.85 1.83 99 1019.8
20260830211012 74 221 0.0 0.0 0.04 1.85 1.83 99 1019.9
20260830210513 74 220 0.0 0.0 0.05 1.85 1.83 99 1020.0
20260830210016 74 220 0.0 0.0 0.06 1.85 1.83 99 1020.1
20260830205512 74 221 0.0 1.0 0.08 1.85 1.83 99 1020.2
20260830205012 74 221 0.0 1.0 0.10 1.85 1.83 99 1020.3
20260830204526 74 220 0.0 1.0 0.13 1.85 1.83 99 1020.1
20260830204011 74 221 0.0 1.0 0.15 1.85 1.83 99 1020.0
20260830203512 74 221 0.0 2.0 0.16 1.85 1.83 98 1019.8
20260830203012 74 221 0.0 3.0 0.25 1.85 1.83 98 1019.9
20260830202511 74 264 1.0 4.0 0.35 1.84 1.82 98 1020.1
20260830202111 74 258 1.0 3.0 0.60 1.82 1.80 98 1020.2
20260830201516 74 255 1.0 3.0 0.76 1.82 1.80 98 1020.2
20260830201013 74 248 0.0 2.0 1.03 1.81 1.79 98 1020.3
20260830200518 74 30 0.0 2.0 1.21 1.81 1.79 98 1020.5
20260830200013 74 30 0.0 3.0 1.28 1.80 1.77 98 1020.6
20260830195514 75 12 1.0 5.0 1.41 1.79 1.76 98 1020.7
20260830195012 75 49 1.0 7.0 1.42 1.77 1.74 98 1020.6
20260830194512 75 50 2.0 7.0 1.55 1.75 1.72 98 1020.6
20260830194013 75 38 1.0 8.0 1.55 1.72 1.69 98 1020.3
20260830193512 75 26 3.0 10.0 1.56 1.71 1.68 98 1020.0
20260830193011 75 344 3.0 11.0 1.62 1.68 1.65 97 1020.0
20260830192511 76 360 5.0 11.0 1.50 1.56 1.53 97 1019.9
20260830192112 77 47 5.0 12.0 1.23 1.29 1.26 97 1019.7
20260830191509 77 51 6.0 12.0 1.15 1.22 1.19 96 1019.7
20260830191013 77 21 4.0 10.0 0.90 0.96 0.93 95 1019.8
20260830190509 78 275 0.0 7.0 0.61 0.67 0.64 96 1019.8
20260830190009 78 43 4.0 7.0 0.52 0.59 0.55 95 1019.6
20260830185509 79 20 2.0 11.0 0.41 0.48 0.44 93 1019.7
20260830185009 79 10 4.0 11.0 0.30 0.37 0.33 92 1019.6
20260830184507 81 21 2.0 5.0 0.25 0.32 0.28 92 1019.8
20260830184009 82 30 2.0 5.0 0.12 0.19 0.15 90 1019.7
20260830183507 83 47 2.0 5.0 0.10 0.17 0.13 88 1019.7
20260830183007 85 25 0.0 4.0 0.09 0.16 0.12 84 1019.7
20260830182506 85 64 1.0 4.0 0.00 0.07 0.03 79 1019.8
20260830182107 86 75 0.0 3.0 0.00 0.07 0.03 80 1019.8
20260830181508 86 75 0.0 4.0 0.00 0.07 0.03 79 1019.9
20260830181007 87 34 1.0 4.0 0.00 0.07 0.03 77 1019.9
20260830180506 87 136 0.0 4.0 0.00 0.07 0.03 76 1020.0
20260830180006 87 30 0.0 3.0 0.00 0.07 0.03 77 1020.0
20260830175505 87 97 1.0 4.0 0.00 0.07 0.03 77 1020.1
20260830175004 87 70 1.0 5.0 0.00 0.07 0.03 79 1020.2
20260830174505 88 53 1.0 5.0 0.00 0.07 0.03 77 1020.2
20260830174004 88 91 2.0 5.0 0.00 0.07 0.03 77 1020.4
20260830173501 88 65 1.0 6.0 0.00 0.07 0.03 78 1020.4
20260830173001 88 55 2.0 6.0 0.00 0.07 0.03 77 1020.5
20260830172501 88 81 2.0 5.0 0.00 0.07 0.03 77 1020.5
20260830172101 89 65 2.0 4.0 0.00 0.07 0.03 73 1020.5
20260830171611 89 65 2.0 4.0 0.00 0.07 0.03 74 1020.6
20260830171057 89 110 0.0 4.0 0.00 0.07 0.03 75 1020.6
20260830170557 88 25 0.0 4.0 0.00 0.07 0.03 78 1020.6
20260830170055 87 25 0.0 4.0 0.00 0.07 0.03 78 1020.7
20260830165553 86 68 0.0 4.0 0.00 0.07 0.03 80 1020.6
20260830165053 85 44 0.0 5.0 0.00 0.07 0.03 83 1020.6
20260830164553 85 81 1.0 6.0 0.00 0.07 0.03 83 1020.6
20260830164053 85 32 0.0 4.0 0.00 0.07 0.03 80 1020.8
20260830163552 85 45 1.0 4.0 0.00 0.07 0.03 81 1020.9
20260830163057 85 126 0.0 8.0 0.00 0.07 0.03 83 1020.9
20260830162552 85 89 2.0 8.0 0.00 0.07 0.03 81 1021.0
20260830162051 86 61 1.0 4.0 0.00 0.07 0.03 81 1021.0
20260830161606 86 37 1.0 4.0 0.00 0.07 0.03 80 1021.1
20260830161049 85 39 1.0 4.0 0.00 0.07 0.03 81 1021.2
20260830160553 85 25 0.0 4.0 0.00 0.07 0.03 81 1021.2
20260830160050 84 67 1.0 3.0 0.00 0.07 0.03 83 1021.3
20260830155548 84 108 0.0 4.0 0.00 0.09 0.03 83 1021.3
20260830155048 84 32 1.0 4.0 0.00 0.09 0.03 84 1021.3
20260830154549 84 24 0.0 5.0 0.00 0.09 0.03 83 1021.3
20260830154047 84 50 0.0 6.0 0.00 0.09 0.03 85 1021.3
20260830153547 84 70 3.0 6.0 0.00 0.09 0.03 83 1021.3
20260830153047 85 343 3.0 6.0 0.00 0.09 0.03 83 1021.3
20260830152547 85 8 0.0 3.0 0.00 0.09 0.03 81 1021.4
20260830152048 85 51 0.0 3.0 0.00 0.09 0.03 81 1021.5
20260830151555 85 74 0.0 3.0 0.00 0.09 0.03 83 1021.5
20260830151047 85 21 0.0 4.0 0.00 0.09 0.03 81 1021.5
20260830150547 85 77 0.0 5.0 0.00 0.09 0.03 82 1021.5
20260830150046 85 97 0.0 5.0 0.00 0.09 0.03 84 1021.5
20260830145547 84 123 2.0 5.0 0.00 0.12 0.03 85 1021.5
20260830145043 84 51 0.0 3.0 0.00 0.12 0.03 84 1021.6
20260830144542 84 98 0.0 4.0 0.00 0.12 0.03 85 1021.6
20260830144041 83 103 0.0 4.0 0.00 0.12 0.03 87 1021.7
20260830143540 83 106 1.0 4.0 0.00 0.12 0.03 88 1021.7
20260830143039 82 115 1.0 6.0 0.00 0.12 0.03 89 1021.8
20260830142538 82 101 1.0 6.0 0.00 0.12 0.03 92 1021.9
20260830142038 82 130 1.0 6.0 0.00 0.12 0.03 93 1021.7
20260830141536 82 48 1.0 6.0 0.00 0.12 0.03 94 1021.7
20260830141036 81 91 2.0 6.0 0.00 0.12 0.03 95 1021.7
20260830140534 81 112 1.0 6.0 0.00 0.12 0.03 95 1021.8
20260830140033 80 79 1.0 5.0 0.00 0.12 0.03 97 1021.8
20260830135536 80 56 0.0 5.0 0.00 0.13 0.03 98 1021.7
20260830135031 79 68 2.0 4.0 0.00 0.13 0.03 99 1021.7
20260830134530 79 89 0.0 4.0 0.00 0.13 0.03 99 1021.7
20260830134030 79 25 1.0 4.0 0.00 0.13 0.03 99 1021.6
20260830133530 79 51 1.0 4.0 0.00 0.13 0.03 100 1021.7
20260830133028 78 74 0.0 2.0 0.00 0.13 0.03 100 1021.7
20260830132527 78 343 0.0 2.0 0.00 0.13 0.03 100 1021.7
20260830132030 78 327 0.0 0.0 0.00 0.13 0.03 100 1021.7
20260830131529 77 327 0.0 0.0 0.00 0.13 0.03 100 1021.7
20260830131030 77 327 0.0 1.0 0.00 0.13 0.03 100 1021.5
20260830130528 77 327 0.0 1.0 0.00 0.13 0.03 100 1021.4
20260830130027 77 353 0.0 1.0 0.00 0.13 0.03 100 1021.4
20260830125527 76 352 0.0 1.0 0.00 0.13 0.03 100 1021.4
20260830125026 76 353 0.0 1.0 0.00 0.13 0.03 100 1021.4
20260830124535 76 346 0.0 1.0 0.00 0.13 0.03 100 1021.5
20260830124024 76 346 0.0 1.0 0.00 0.13 0.03 100 1021.4
20260830123526 76 346 0.0 1.0 0.00 0.13 0.03 100 1021.5
20260830123032 76 313 0.0 0.0 0.00 0.13 0.03 100 1021.5
20260830122523 76 313 0.0 0.0 0.00 0.13 0.03 100 1021.5
20260830122022 75 6 0.0 0.0 0.00 0.13 0.03 100 1021.4
20260830121522 75 6 0.0 0.0 0.00 0.13 0.03 100 1021.4
20260830121020 75 6 0.0 0.0 0.00 0.13 0.03 100 1021.5
20260830120519 74 6 0.0 0.0 0.00 0.13 0.03 100 1021.4
20260830120018 74 6 0.0 0.0 0.00 0.15 0.03 100 1021.3
20260830115517 74 6 0.0 0.0 0.00 0.15 0.03 100 1021.4
20260830115016 73 6 0.0 0.0 0.00 0.15 0.03 100 1021.4
20260830114516 73 6 0.0 0.0 0.00 0.15 0.03 100 1021.4
20260830114017 73 6 0.0 0.0 0.00 0.15 0.03 100 1021.4
20260830113515 73 6 0.0 0.0 0.00 0.15 0.03 100 1021.4
20260830113015 72 6 0.0 0.0 0.00 0.15 0.03 100 1021.4
20260830112515 72 6 0.0 0.0 0.00 0.15 0.03 100 1021.5
20260830112015 72 6 0.0 0.0 0.01 0.15 0.03 100 1021.4
20260830111514 72 6 0.0 0.0 0.01 0.15 0.03 100 1021.4
20260830111015 72 6 0.0 0.0 0.01 0.15 0.03 100 1021.6
20260830110514 72 6 0.0 0.0 0.01 0.15 0.03 100 1021.6
20260830110031 72 6 0.0 0.0 0.01 0.18 0.03 100 1021.5
20260830105513 72 6 0.0 0.0 0.01 0.18 0.03 100 1021.5
20260830105014 72 6 0.0 0.0 0.01 0.18 0.03 100 1021.4
20260830104529 72 6 0.0 0.0 0.01 0.18 0.03 100 1021.3
20260830104015 72 6 0.0 0.0 0.01 0.18 0.03 100 1021.4
20260830103513 72 6 0.0 0.0 0.01 0.18 0.03 100 1021.3
20260830103013 72 6 0.0 0.0 0.01 0.18 0.03 100 1021.3
20260830102512 72 6 0.0 0.0 0.01 0.18 0.03 100 1021.3
20260830102014 72 6 0.0 0.0 0.01 0.17 0.02 100 1021.2
20260830101519 72 6 0.0 0.0 0.01 0.17 0.02 100 1021.1
20260830101013 72 6 0.0 0.0 0.02 0.17 0.02 100 1021.2
20260830100513 72 6 0.0 0.0 0.02 0.17 0.02 100 1021.3
20260830100013 72 6 0.0 0.0 0.02 0.19 0.02 100 1021.3
20260830095513 72 6 0.0 0.0 0.02 0.19 0.02 100 1021.3
20260830095013 72 6 0.0 0.0 0.02 0.19 0.02 100 1021.4
20260830094518 72 6 0.0 0.0 0.02 0.19 0.02 100 1021.4
20260830094012 72 6 0.0 0.0 0.02 0.19 0.02 100 1021.4
20260830093512 73 6 0.0 1.0 0.02 0.19 0.02 100 1021.3
20260830093012 73 6 0.0 1.0 0.02 0.19 0.02 100 1021.2
20260830092514 73 6 0.0 1.0 0.02 0.19 0.02 100 1021.1
20260830092013 72 6 0.0 1.0 0.01 0.18 0.01 100 1021.0
20260830091513 72 6 0.0 1.0 0.01 0.18 0.01 100 1021.0
20260830091011 71 6 0.0 0.0 0.00 0.17 0.00 100 1021.0
20260830090512 71 6 0.0 0.0 0.00 0.17 0.00 100 1020.8
20260830090011 71 6 0.0 0.0 0.00 0.17 0.00 100 1020.8
20260830085512 71 6 0.0 0.0 0.00 0.17 0.00 100 1020.7
20260830085011 71 6 0.0 0.0 0.00 0.17 0.00 100 1020.7
20260830084511 71 6 0.0 0.0 0.00 0.17 0.00 100 1020.7
20260830084010 71 6 0.0 0.0 0.00 0.17 0.00 100 1020.7
20260830083510 71 6 0.0 0.0 0.00 0.17 0.00 100 1020.6
20260830083010 71 6 0.0 0.0 0.00 0.17 0.00 100 1020.6
20260830082509 71 6 0.0 0.0 0.00 0.17 0.00 100 1020.6
20260830082010 71 6 0.0 1.0 0.00 0.17 0.00 100 1020.6
20260830081511 71 6 0.0 1.0 0.00 0.17 0.00 100 1020.6
20260830081011 71 6 0.0 0.0 0.00 0.17 0.00 100 1020.6
20260830080511 71 6 0.0 0.0 0.00 0.17 0.00 100 1020.5
20260830080011 71 6 0.0 0.0 0.00 0.17 0.00 100 1020.5
20260830075510 71 6 0.0 0.0 0.00 0.17 0.00 100 1020.5
20260830075010 71 6 0.0 0.0 0.00 0.17 0.00 100 1020.5
20260830074509 71 6 0.0 0.0 0.00 0.17 0.00 100 1020.6
20260830074013 71 6 0.0 0.0 0.00 0.17 0.00 100 1020.6
20260830073508 71 6 0.0 0.0 0.00 0.17 0.00 100 1020.6
20260830073007 71 6 0.0 0.0 0.00 0.17 0.00 100 1020.6
20260830072507 72 6 0.0 0.0 0.00 0.17 0.00 100 1020.7
20260830072007 72 6 0.0 1.0 0.00 0.17 0.00 100 1020.9
20260830071518 72 6 0.0 1.0 0.00 0.17 0.00 100 1020.9
20260830071006 72 6 0.0 1.0 0.00 0.17 0.00 100 1020.7
20260830070505 72 6 0.0 1.0 0.00 0.17 0.00 100 1020.8
20260830070013 72 6 0.0 1.0 0.00 0.17 0.00 100 1020.8
20260830065504 72 6 0.0 0.0 0.00 0.17 0.00 100 1020.9
20260830065004 72 6 0.0 0.0 0.00 0.17 0.00 100 1020.9
20260830064502 72 6 0.0 0.0 0.00 0.17 0.00 100 1021.0
20260830064002 72 6 0.0 0.0 0.00 0.17 0.00 100 1021.1
20260830063503 72 6 0.0 0.0 0.00 0.17 0.00 100 1021.1
20260830063001 72 6 0.0 0.0 0.00 0.17 0.00 100 1021.1
20260830062502 72 6 0.0 0.0 0.00 0.17 0.00 100 1021.2
20260830062100 72 6 0.0 0.0 0.00 0.17 0.00 100 1021.3
20260830061059 72 6 0.0 0.0 0.00 0.17 0.00 100 1021.3
20260830060559 72 6 0.0 0.0 0.00 0.17 0.00 100 1021.4
20260830060058 72 6 0.0 0.0 0.00 0.17 0.00 100 1021.6
20260830055557 72 6 0.0 2.0 0.00 0.17 0.00 100 1021.7
20260830055056 72 6 0.0 2.0 0.00 0.17 0.00 100 1021.8
20260830054602 72 6 0.0 0.0 0.00 0.17 0.00 100 1021.9
20260830054055 72 6 0.0 0.0 0.00 0.17 0.00 100 1021.9
20260830053557 72 6 0.0 0.0 0.00 0.17 0.00 100 1021.9
20260830053055 72 6 0.0 0.0 0.00 0.17 0.00 100 1021.9
20260830052555 72 6 0.0 0.0 0.00 0.17 0.00 100 1021.9
20260830052055 72 6 0.0 0.0 0.00 0.17 0.00 100 1022.0
20260830051055 72 6 0.0 0.0 0.00 0.17 0.00 100 1021.9
20260830050555 72 6 0.0 0.0 0.00 0.17 0.00 99 1021.9
20260830050116 73 6 0.0 0.0 0.00 0.17 0.00 100 1021.9
20260830045554 73 6 0.0 0.0 0.00 0.17 0.00 99 1021.9
20260830045055 73 6 0.0 0.0 0.01 0.17 0.00 100 1022.1
20260830044554 73 6 0.0 0.0 0.01 0.17 0.00 99 1022.0
20260830044053 73 6 0.0 0.0 0.01 0.17 0.00 99 1021.9
20260830043553 73 6 0.0 0.0 0.01 0.17 0.00 99 1021.8
20260830043055 73 6 0.0 0.0 0.01 0.17 0.00 99 1021.9
20260830042552 73 6 0.0 0.0 0.01 0.17 0.00 99 1022.0
20260830042052 73 6 0.0 0.0 0.01 0.17 0.00 99 1022.0
20260830041052 73 6 0.0 0.0 0.01 0.17 0.00 99 1022.0
20260830040549 73 6 0.0 0.0 0.01 0.17 0.00 99 1022.0
20260830040052 73 6 0.0 0.0 0.01 0.17 0.00 99 1022.0
20260830035549 73 6 0.0 0.0 0.01 0.17 0.17 99 1021.9
20260830035048 73 6 0.0 0.0 0.00 0.16 0.16 99 1021.9
20260830034548 73 6 0.0 0.0 0.00 0.16 0.16 99 1021.9
20260830034048 73 6 0.0 0.0 0.00 0.16 0.16 99 1021.9
20260830033550 73 6 0.0 0.0 0.00 0.16 0.16 99 1021.9
20260830033048 73 6 0.0 0.0 0.00 0.16 0.16 99 1022.0
20260830032547 73 6 0.0 0.0 0.00 0.16 0.16 99 1022.0
20260830032047 73 6 0.0 0.0 0.00 0.16 0.16 99 1021.9
20260830031049 74 6 0.0 0.0 0.00 0.16 0.16 99 1021.8
20260830030549 74 6 0.0 0.0 0.00 0.16 0.16 99 1021.7
20260830030049 74 6 0.0 0.0 0.00 0.16 0.16 99 1021.6
20260830025549 74 6 0.0 0.0 0.00 0.16 0.16 99 1021.5
20260830025048 74 6 0.0 0.0 0.00 0.16 0.16 99 1021.5
20260830024554 74 6 0.0 0.0 0.00 0.16 0.16 99 1021.4